Location: Hamilton
(43.2500°N, 79.8330°W)
Time: 03:56:43
(UTC-04:00)

Amateur Radio Satellites - All Passes

Search period start: 24 May 2016 03:26
Search period end: 25 May 2016 03:26
Location: Hamilton, 43.2500°N, 79.8330°W

Satellite Date Start Highest point End Downlink Frequencies (MHz)
Time Altitude Azimuth
BEESAT 24 May 03:31:11 03:35:28 33° 263° (W) 03:39:46 436.000
Cosmos 2504 24 May 03:38:35 03:41:38 12° 56° (NE) 03:44:43 435.465 / 435.565
PHONESAT 2.4 24 May 03:41:57 03:44:57 44° 188° (S) 03:47:58 2401.200-2431.200
MOZHAYETS 4 24 May 03:42:27 03:46:27 31° 68° (ENE) 03:50:30
YUBILEINY 24 May 03:45:38 03:54:01 47° 74° (ENE) 04:02:23 435.215
KKS-1 24 May 03:57:10 04:01:36 63° 73° (ENE) 04:06:02 437.445
Gurwin Techsat 1B 24 May 04:05:09 04:10:21 56° 289° (WNW) 04:15:32 435.225
Oscar 19 24 May 04:17:17 04:20:59 20° 298° (WNW) 04:24:39 437.125/150
Cosmos 2491 24 May 04:39:56 04:48:16 49° 89° (E) 04:56:37 435.465 / 435.565
STARS 24 May 04:44:19 04:48:45 79° 257° (WSW) 04:53:11 437.465
ITAMSAT 1 24 May 04:48:30 04:53:36 55° 289° (WNW) 04:58:41 435.822/435.867
AO-7 24 May 04:50:06 04:58:16 53° 102° (ESE) 05:06:23 29.400- 29.500
CUBESAT XI-V 24 May 04:56:46 05:00:26 23° 65° (ENE) 05:04:06 437.345
ISS 24 May 04:58:55 05:02:03 41° 25° (NNE) 05:05:10 145.825
RS-15 24 May 05:07:43 05:19:00 45° 251° (WSW) 05:30:15 29.354- 29.394
HORYU 2 24 May 05:14:43 05:17:56 20° 93° (E) 05:21:09 437.375
PHONESAT 2.4 24 May 05:19:03 05:21:19 18° 204° (SSW) 05:23:34 2401.200-2431.200
MOZHAYETS 4 24 May 05:19:47 05:23:37 27° 265° (W) 05:27:29
Cosmos 2504 24 May 05:28:42 05:36:52 59° 77° (ENE) 05:45:28 435.465 / 435.565
KKS-1 24 May 05:36:29 05:38:35 13° 270° (W) 05:40:40 437.445
YUBILEINY 24 May 05:42:45 05:50:39 40° 274° (W) 05:58:35 435.215
NOAA 18 24 May 06:12:30 06:15:07 13° 89° (E) 06:17:44 137.9125
STRAND 1 24 May 06:14:24 06:17:12 15° 59° (ENE) 06:20:00 437.568
CUBESAT XI-V 24 May 06:33:12 06:37:34 39° 263° (W) 06:42:00 437.345
ISS 24 May 06:35:32 06:38:24 28° 223° (SW) 06:41:15 145.825
Cosmos 2491 24 May 06:37:09 06:45:16 39° 289° (WNW) 06:53:26 435.465 / 435.565
AO-7 24 May 06:43:16 06:50:47 39° 301° (WNW) 06:58:17 29.400- 29.500
Cubesat XI-IV 24 May 06:46:11 06:50:23 23° 93° (E) 06:54:34 437.490
HORYU 2 24 May 06:50:31 06:54:41 41° 290° (WNW) 06:58:49 437.375
LilacSat-2 24 May 06:55:25 06:58:23 21° 94° (E) 07:01:19 437.200
NOAA 15 24 May 06:55:42 07:00:41 40° 98° (E) 07:05:37 137.62
BRITE-PL 24 May 07:05:53 07:10:52 40° 96° (E) 07:15:26 437.365/2234.400
AO-85 24 May 07:10:19 07:15:17 37° 115° (ESE) 07:20:12 145.980
Cosmos 2504 24 May 07:22:47 07:29:48 32° 276° (W) 07:37:08 435.465 / 435.565
DOVE 4 24 May 07:25:05 07:26:43 12° 87° (E) 07:28:19 437.250
CUTE-I 24 May 07:33:03 07:38:22 61° 102° (ESE) 07:43:39 437.470
GONETS M04 24 May 07:42:28 07:44:16 11° 51° (NE) 07:46:05
STRAND 1 24 May 07:50:38 07:55:43 78° 257° (WSW) 08:00:51 437.568
NOAA 18 24 May 07:50:56 07:56:25 82° 286° (WNW) 08:01:54 137.9125
GOMX 1 24 May 07:51:23 07:56:08 51° 98° (E) 08:00:31 467.674
PRISM 24 May 08:22:26 08:26:20 41° 71° (ENE) 08:30:17 437.425
CUTE 1.7 + AOD 2 24 May 08:22:29 08:24:44 14° 90° (E) 08:26:59 437.475
CINEMA 3 24 May 08:24:19 08:26:40 15° 90° (E) 08:28:59 145.822/145.860
Cosmos 2499 24 May 08:25:03 08:28:15 12° 55° (NE) 08:31:29 435.465 / 435.565
Cubesat XI-IV 24 May 08:25:34 08:30:42 48° 290° (WNW) 08:35:49 437.490
LilacSat-2 24 May 08:29:28 08:32:41 27° 290° (WNW) 08:35:53 437.200
HO-68 24 May 08:31:23 08:37:19 27° 94° (E) 08:43:12 435.675
NOAA 15 24 May 08:35:47 08:40:17 28° 295° (WNW) 08:44:45 137.62
SO-50 24 May 08:37:14 08:38:33 11° 28° (NNE) 08:39:52 436.795
BRITE-PL 24 May 08:44:43 08:49:05 27° 296° (WNW) 08:53:11 437.365/2234.400
AIST 1 24 May 08:46:27 08:50:19 29° 74° (ENE) 08:54:07
AO-85 24 May 08:50:42 08:55:48 39° 312° (NW) 09:00:46 145.980
COMPASS 1 24 May 08:58:19 09:01:13 18° 92° (E) 09:04:06 437.405
DOVE 4 24 May 09:00:30 09:04:59 64° 286° (WNW) 09:09:12 437.250
AAUSAT CUBESAT 2 24 May 09:04:57 09:07:41 17° 92° (E) 09:10:26 437.432
AUBIESAT-1 24 May 09:07:31 09:10:38 35° 104° (ESE) 09:13:42 437.475
M-CUBED/EXP-1 PRIME 24 May 09:10:35 09:13:50 50° 106° (ESE) 09:17:00 437.505
CUTE-I 24 May 09:14:09 09:17:56 20° 299° (WNW) 09:21:45 437.470
CANX-2 24 May 09:28:34 09:32:52 85° 103° (ESE) 09:37:10 2200.000
GOMX 1 24 May 09:30:26 09:33:45 19° 298° (WNW) 09:36:55 467.674
NOAA 18 24 May 09:33:48 09:36:14 13° 304° (NW) 09:38:39 137.9125
GONETS M04 24 May 09:35:02 09:43:33 54° 76° (ENE) 09:51:58
SEEDS 24 May 09:39:18 09:43:34 71° 102° (ESE) 09:47:48 437.485
CUBEBUG 2 24 May 09:39:27 09:43:08 30° 96° (E) 09:46:49 437.445
Oscar 11 24 May 09:45:25 09:48:35 19° 93° (E) 09:51:44 145.826/435.025
UNISAT 6 24 May 09:47:29 09:50:35 19° 65° (ENE) 09:53:40 437.425
ZACube-1 24 May 09:51:50 09:54:52 19° 93° (E) 09:57:56 437.345
TIGRISAT 24 May 09:56:06 09:59:28 22° 66° (ENE) 10:02:48 435.000
CUTE 1.7 + AOD 2 24 May 09:56:43 10:00:54 54° 287° (WNW) 10:05:04 437.475
PRISM 24 May 09:59:05 10:01:50 17° 267° (W) 10:04:37 437.425
CINEMA 3 24 May 10:00:05 10:04:08 47° 288° (WNW) 10:08:06 145.822/145.860
DELFI C3 24 May 10:07:48 10:10:14 15° 92° (E) 10:12:39 145.870
Cosmos 2499 24 May 10:14:58 10:23:19 58° 77° (ENE) 10:32:00 435.465 / 435.565
SO-50 24 May 10:15:41 10:20:16 46° 50° (NE) 10:24:41 436.795
UWE-3 24 May 10:16:07 10:20:12 54° 100° (E) 10:24:18 435.000/436.395/437.385
HO-68 24 May 10:18:24 10:25:27 61° 292° (WNW) 10:32:28 435.675
AIST 1 24 May 10:24:15 10:27:46 24° 272° (W) 10:31:14
ANTELSAT 24 May 10:27:31 10:31:45 48° 72° (ENE) 10:35:55 437.575/2403.000
FUNcube-1 24 May 10:31:21 10:35:24 49° 100° (E) 10:39:29 145.935
COMPASS 1 24 May 10:33:00 10:36:57 41° 288° (WNW) 10:40:55 437.405
HUMSAT D 24 May 10:34:47 10:37:02 14° 91° (E) 10:39:15 437.325/437.525
AO-85 24 May 10:36:19 10:37:44 11° 333° (NNW) 10:39:08 145.980
AAUSAT CUBESAT 2 24 May 10:39:24 10:43:23 43° 288° (WNW) 10:47:21 437.432
NANOSAT C BR1 24 May 10:42:09 10:44:12 13° 62° (ENE) 10:46:15 145.865
AUBIESAT-1 24 May 10:43:08 10:44:52 14° 301° (WNW) 10:46:36 437.475
O/OREOS (USA 219) 24 May 10:44:24 10:48:50 51° 108° (ESE) 10:53:16 437.305
M-CUBED/EXP-1 PRIME 24 May 10:47:29 10:47:59 10° 303° (WNW) 10:48:29 437.505
CANX-2 24 May 11:07:27 11:08:04 10° 300° (WNW) 11:08:39 2200.000
CUBEBUG 2 24 May 11:16:20 11:19:39 23° 293° (WNW) 11:22:57 437.445
SEEDS 24 May 11:17:04 11:18:41 12° 298° (WNW) 11:20:18 437.485
DUCHIFAT 1 24 May 11:20:40 11:24:23 31° 69° (ENE) 11:28:06 145.980
Oscar 11 24 May 11:20:49 11:24:52 39° 289° (WNW) 11:28:54 145.826/435.025
PCSat 24 May 11:21:30 11:26:54 77° 118° (ESE) 11:32:21 145.827
UNISAT 6 24 May 11:22:51 11:27:02 42° 261° (W) 11:31:10 437.425
ZACube-1 24 May 11:27:28 11:31:17 36° 289° (WNW) 11:35:08 437.345
TIGRISAT 24 May 11:31:55 11:35:58 36° 262° (W) 11:39:59 435.000
GONETS M04 24 May 11:32:26 11:39:59 35° 276° (W) 11:47:31
DELFI C3 24 May 11:41:28 11:45:19 43° 288° (WNW) 11:49:09 145.870
50 SAT 24 May 11:46:15 11:46:35 10° 90° (E) 11:46:53 437.505
JAS-2 24 May 11:53:24 11:59:09 25° 57° (ENE) 12:05:10 435.910
POPSAT HIP 1 24 May 11:53:43 11:57:58 78° 75° (ENE) 12:02:13 437.405
UWE-3 24 May 11:53:59 11:56:15 14° 297° (WNW) 11:58:30 435.000/436.395/437.385
QB50P1 24 May 11:54:30 11:58:45 81° 75° (ENE) 12:03:00 145.935-145.965
BUGSAT 1 24 May 11:54:48 11:58:38 35° 70° (ENE) 12:02:28 437.445
QB50P2 24 May 11:55:24 11:59:40 87° 77° (ENE) 12:03:56 145.880/145.840
SO-50 24 May 11:56:48 12:00:25 22° 248° (WSW) 12:03:57 436.795
POLYITAN 1 24 May 11:57:50 12:02:06 89° 79° (E) 12:06:22 437.675
CUSAT 1 24 May 11:59:10 12:04:16 29° 84° (E) 12:10:20 437.405
AISAT 24 May 12:02:11 12:05:09 17° 92° (E) 12:08:06 437.250
ANTELSAT 24 May 12:06:00 12:08:43 16° 268° (W) 12:11:25 437.575/2403.000
HO-68 24 May 12:08:43 12:11:45 13° 312° (NW) 12:14:46 435.675
Cosmos 2499 24 May 12:08:44 12:16:01 33° 276° (W) 12:23:32 435.465 / 435.565
FUNcube-1 24 May 12:08:48 12:11:17 15° 296° (WNW) 12:13:45 145.935
HUMSAT D 24 May 12:08:55 12:12:56 50° 287° (WNW) 12:16:58 437.325/437.525
NANOSAT C BR1 24 May 12:15:14 12:19:26 62° 259° (WSW) 12:23:39 145.865
Oscar 19 24 May 12:18:57 12:21:21 13° 58° (ENE) 12:23:45 437.125/150
ESTCUBE 1 24 May 12:23:44 12:28:05 42° 99° (E) 12:32:22 437.505/2401.250
O/OREOS (USA 219) 24 May 12:25:16 12:28:33 19° 307° (NW) 12:31:49 437.305
UKube-1 24 May 12:30:40 12:34:05 22° 94° (E) 12:37:28 .
BEESAT 3 24 May 12:50:10 12:53:51 40° 117° (ESE) 12:57:35 437.485
DUCHIFAT 1 24 May 12:56:40 13:00:06 24° 265° (W) 13:03:32 145.980
DANDE 24 May 13:00:35 13:05:18 38° 87° (E) 13:11:23 436.750
VELOX 1 24 May 13:01:51 13:06:19 72° 103° (ESE) 13:10:42 145.980
CUBEBUG 1 24 May 13:05:01 13:09:26 81° 102° (ESE) 13:13:47 437.445
PCSat 24 May 13:06:52 13:10:55 21° 318° (NW) 13:14:58 145.827
DX 1 24 May 13:09:35 13:13:58 73° 102° (ESE) 13:18:18 434.975-435.025
50 SAT 24 May 13:17:00 13:20:40 56° 286° (WNW) 13:24:18 437.505
BUGSAT 1 24 May 13:30:52 13:34:05 21° 266° (W) 13:37:18 437.445
JAS-2 24 May 13:36:05 13:43:17 78° 257° (WSW) 13:51:08 435.910
AISAT 24 May 13:37:38 13:41:53 46° 289° (WNW) 13:46:04 437.250
CUSAT 1 24 May 13:39:58 13:45:51 53° 287° (WNW) 13:53:11 437.405
BEESAT 2 24 May 13:45:15 13:49:14 89° 303° (WNW) 13:53:15 435.950
Gurwin Techsat 1B 24 May 13:48:02 13:52:47 35° 67° (ENE) 13:57:34 435.225
SPROUT 24 May 13:49:16 13:53:34 85° 282° (WNW) 13:57:48 437.525
Oscar 19 24 May 13:54:41 13:59:54 90° 84° (E) 14:05:09 437.125/150
ESTCUBE 1 24 May 14:01:11 14:04:36 21° 295° (WNW) 14:08:00 437.505/2401.250
AO-7 24 May 14:01:17 14:06:44 20° 48° (NE) 14:12:11 29.400- 29.500
UKube-1 24 May 14:06:16 14:10:12 34° 291° (WNW) 14:14:06 .
TISAT 1 24 May 14:27:17 14:31:28 70° 102° (ESE) 14:35:36 437.305
BEESAT 3 24 May 14:28:33 14:31:42 22° 316° (NW) 14:34:52 437.485
ITAMSAT 1 24 May 14:28:48 14:33:23 33° 66° (ENE) 14:37:59 435.822/435.867
VELOX 1 24 May 14:40:11 14:42:11 13° 300° (WNW) 14:44:10 145.980
DANDE 24 May 14:43:28 14:48:14 32° 294° (WNW) 14:54:19 436.750
CUBEBUG 1 24 May 14:43:41 14:45:03 11° 300° (WNW) 14:46:25 437.445
DX 1 24 May 14:47:45 14:49:34 12° 300° (WNW) 14:51:23 434.975-435.025
Cosmos 2491 24 May 14:49:14 14:56:15 26° 64° (ENE) 15:03:11 435.465 / 435.565
SWISSCUBE 24 May 14:59:38 15:03:55 32° 96° (E) 15:08:11 437.505
ITUPSAT 1 24 May 15:03:46 15:08:02 31° 96° (E) 15:12:18 437.325
AIST 2 24 May 15:24:11 15:28:16 65° 121° (ESE) 15:32:23 435.215
JAS-2 24 May 15:25:42 15:29:34 15° 277° (W) 15:33:37 435.910
BEESAT 2 24 May 15:25:43 15:27:41 13° 323° (NW) 15:29:39 435.950
Gurwin Techsat 1B 24 May 15:28:02 15:32:44 32° 264° (W) 15:37:28 435.225
CUSAT 1 24 May 15:28:28 15:30:08 11° 311° (NW) 15:31:51 437.405
BEESAT 24 May 15:29:31 15:34:15 57° 101° (E) 15:38:57 436.000
Oscar 19 24 May 15:38:24 15:39:55 11° 272° (W) 15:41:26 437.125/150
AO-85 24 May 15:41:29 15:45:58 38° 47° (NE) 15:50:04 145.980
KKS-1 24 May 15:49:39 15:50:48 11° 89° (E) 15:51:57 437.445
AO-7 24 May 15:49:57 15:58:12 77° 69° (ENE) 16:06:32 29.400- 29.500
TISAT 1 24 May 16:05:01 16:06:33 12° 299° (WNW) 16:08:04 437.305
ITAMSAT 1 24 May 16:08:14 16:12:49 32° 264° (W) 16:17:27 435.822/435.867
HORYU 2 24 May 16:13:52 16:17:14 22° 65° (ENE) 16:20:36 437.375
STARS 24 May 16:33:46 16:36:38 17° 92° (E) 16:39:30 437.465
SWISSCUBE 24 May 16:37:30 16:41:38 30° 293° (WNW) 16:45:47 437.505
ITUPSAT 1 24 May 16:41:38 16:45:49 30° 293° (WNW) 16:50:00 437.325
NOAA 15 24 May 16:41:51 16:43:04 11° 55° (NE) 16:44:18 137.62
Cosmos 2491 24 May 16:45:15 16:54:00 75° 266° (W) 17:02:40 435.465 / 435.565
YUBILEINY 24 May 16:47:45 16:56:02 52° 89° (E) 17:04:20 435.215
AIST 2 24 May 17:04:23 17:07:10 17° 320° (NW) 17:09:59 435.215
BEESAT 24 May 17:08:25 17:11:36 18° 298° (WNW) 17:14:45 436.000
MOZHAYETS 4 24 May 17:12:39 17:17:15 65° 101° (E) 17:21:51
CUTE-I 24 May 17:18:47 17:21:55 16° 59° (ENE) 17:25:03 437.470
RS-15 24 May 17:21:11 17:30:33 32° 103° (ESE) 17:40:18 29.354- 29.394
AO-85 24 May 17:22:24 17:26:14 26° 248° (WSW) 17:29:46 145.980
KKS-1 24 May 17:23:27 17:27:54 73° 285° (WNW) 17:32:17 437.445
GOMX 1 24 May 17:27:00 17:27:25 10° 56° (NE) 17:27:50 467.674
NOAA 18 24 May 17:38:53 17:43:34 30° 64° (ENE) 17:48:16 137.9125
LilacSat-2 24 May 17:39:34 17:41:32 14° 65° (ENE) 17:43:31 437.200
AO-7 24 May 17:45:24 17:51:45 24° 268° (W) 17:58:09 29.400- 29.500
HORYU 2 24 May 17:49:25 17:53:33 38° 262° (W) 17:57:42 437.375
Cubesat XI-IV 24 May 18:09:00 18:13:57 42° 68° (ENE) 18:18:56 437.490
STARS 24 May 18:09:03 18:13:14 46° 289° (WNW) 18:17:24 437.465
Cosmos 2504 24 May 18:09:11 18:15:52 44° 88° (E) 18:22:53 435.465 / 435.565
BRITE-PL 24 May 18:16:17 18:21:43 53° 71° (ENE) 18:27:15 437.365/2234.400
NOAA 15 24 May 18:16:37 18:21:53 71° 73° (ENE) 18:27:12 137.62
PCSat 24 May 18:26:12 18:29:29 16° 37° (NE) 18:32:45 145.827
CUBESAT XI-V 24 May 18:28:20 18:32:54 47° 99° (E) 18:37:25 437.345
DOVE 4 24 May 18:30:10 18:33:42 19° 63° (ENE) 18:37:11 437.250
Cosmos 2491 24 May 18:45:05 18:49:11 14° 287° (WNW) 18:53:17 435.465 / 435.565
YUBILEINY 24 May 18:45:14 18:53:05 37° 290° (WNW) 19:00:59 435.215
MOZHAYETS 4 24 May 18:51:19 18:53:54 15° 298° (WNW) 18:56:28
CUTE-I 24 May 18:56:02 19:01:19 77° 256° (WSW) 19:06:40 437.470
GOMX 1 24 May 18:59:04 19:04:29 64° 74° (ENE) 19:09:52 467.674
HO-68 24 May 19:02:00 19:07:28 24° 56° (ENE) 19:12:56 435.675
LilacSat-2 24 May 19:11:47 19:15:28 47° 261° (W) 19:19:09 437.200
O/OREOS (USA 219) 24 May 19:15:18 19:17:54 15° 51° (NE) 19:20:28 437.305
CUTE 1.7 + AOD 2 24 May 19:17:13 19:18:53 12° 62° (ENE) 19:20:32 437.475
NOAA 18 24 May 19:19:00 19:24:05 39° 262° (W) 19:29:12 137.9125
CINEMA 3 24 May 19:26:30 19:29:48 19° 65° (ENE) 19:33:02 145.822/145.860
RS-15 24 May 19:30:24 19:41:48 77° 307° (NW) 19:53:55 29.354- 29.394
Cubesat XI-IV 24 May 19:49:44 19:54:09 26° 266° (W) 19:58:36 437.490
COMPASS 1 24 May 19:50:56 19:53:13 15° 63° (ENE) 19:55:30 437.405
AUBIESAT-1 24 May 19:53:51 19:58:01 66° 70° (ENE) 20:01:55 437.475
BRITE-PL 24 May 19:56:00 20:00:26 24° 269° (W) 20:04:58 437.365/2234.400
AAUSAT CUBESAT 2 24 May 19:57:09 19:59:13 14° 63° (ENE) 20:01:18 437.432
M-CUBED/EXP-1 PRIME 24 May 19:57:18 20:01:38 88° 64° (ENE) 20:05:38 437.505
NOAA 15 24 May 19:59:08 20:02:11 15° 270° (W) 20:05:15 137.62
STRAND 1 24 May 20:00:18 20:04:56 33° 97° (E) 20:09:33 437.568
Cosmos 2504 24 May 20:02:53 20:09:23 35° 290° (WNW) 20:16:11 435.465 / 435.565
DOVE 4 24 May 20:05:42 20:10:56 63° 259° (W) 20:16:02 437.250
CUBESAT XI-V 24 May 20:06:29 20:09:56 20° 296° (WNW) 20:13:22 437.345
PCSat 24 May 20:08:23 20:13:50 75° 59° (ENE) 20:19:15 145.827
CANX-2 24 May 20:22:03 20:26:12 67° 75° (ENE) 20:30:24 2200.000
BEESAT 2 24 May 20:26:22 20:27:51 12° 36° (NE) 20:29:18 435.950
SEEDS 24 May 20:31:48 20:35:50 54° 74° (ENE) 20:39:57 437.485
CUBEBUG 2 24 May 20:38:28 20:42:19 30° 69° (ENE) 20:46:06 437.445
GOMX 1 24 May 20:39:12 20:42:56 18° 270° (W) 20:46:40 467.674
Oscar 11 24 May 20:41:36 20:44:31 18° 64° (ENE) 20:47:26 145.826/435.025
HO-68 24 May 20:47:23 20:54:31 74° 256° (WSW) 21:01:42 435.675
ZACube-1 24 May 20:49:03 20:52:00 19° 66° (ENE) 20:54:55 437.345
GONETS M04 24 May 20:49:49 20:50:42 10° 70° (ENE) 20:51:35
CUTE 1.7 + AOD 2 24 May 20:49:59 20:54:10 68° 260° (W) 20:58:22 437.475
O/OREOS (USA 219) 24 May 20:53:20 20:57:49 69° 249° (WSW) 21:02:14 437.305
DELFI C3 24 May 20:56:24 20:57:33 11° 62° (ENE) 20:58:44 145.870
CINEMA 3 24 May 21:01:56 21:06:36 50° 260° (W) 21:11:08 145.822/145.860
BEESAT 3 24 May 21:06:25 21:10:05 34° 49° (NE) 21:13:42 437.485
UWE-3 24 May 21:13:52 21:18:04 49° 73° (ENE) 21:22:11 435.000/436.395/437.385
AIST 1 24 May 21:17:47 21:20:38 17° 86° (E) 21:23:30
COMPASS 1 24 May 21:24:18 21:28:20 53° 260° (W) 21:32:25 437.405
FUNcube-1 24 May 21:27:45 21:31:47 43° 72° (ENE) 21:35:46 145.935
HUMSAT D 24 May 21:28:14 21:29:48 12° 62° (ENE) 21:31:22 437.325/437.525
AAUSAT CUBESAT 2 24 May 21:30:11 21:34:14 57° 260° (W) 21:38:20 437.432
AUBIESAT-1 24 May 21:31:28 21:32:47 11° 263° (W) 21:34:04 437.475
PRISM 24 May 21:37:52 21:42:01 59° 101° (E) 21:46:08 437.425
STRAND 1 24 May 21:39:30 21:44:03 32° 294° (WNW) 21:48:34 437.568
RS-15 24 May 21:46:27 21:56:38 33° 336° (NNW) 22:07:15 29.354- 29.394
PCSat 24 May 21:53:23 21:56:34 16° 256° (WSW) 21:59:43 145.827
DANDE 24 May 21:58:22 21:59:37 10° 49° (NE) 22:00:52 436.750
CANX-2 24 May 22:01:25 22:02:31 11° 271° (W) 22:03:37 2200.000
BEESAT 2 24 May 22:02:24 22:06:25 74° 55° (NE) 22:10:22 435.950
AIST 2 24 May 22:08:30 22:09:18 10° 33° (NNE) 22:10:06 435.215
SEEDS 24 May 22:09:52 22:11:53 13° 270° (W) 22:13:56 437.485
CUBEBUG 2 24 May 22:15:15 22:18:57 25° 265° (W) 22:22:34 437.445
Oscar 11 24 May 22:16:12 22:20:19 44° 261° (W) 22:24:27 145.826/435.025
ZACube-1 24 May 22:23:58 22:28:01 41° 261° (W) 22:32:01 437.345
DELFI C3 24 May 22:27:56 22:31:52 67° 259° (WSW) 22:35:51 145.870
CUSAT 1 24 May 22:32:01 22:38:43 29° 63° (ENE) 22:44:44 437.405
GONETS M04 24 May 22:36:56 22:45:30 60° 91° (E) 22:54:04
HO-68 24 May 22:40:41 22:43:23 12° 274° (W) 22:46:07 435.675
BEESAT 3 24 May 22:44:27 22:47:36 23° 246° (WSW) 22:50:44 437.485
UWE-3 24 May 22:52:16 22:54:48 15° 268° (W) 22:57:19 435.000/436.395/437.385
Cosmos 2499 24 May 22:53:39 23:00:16 42° 87° (E) 23:07:19 435.465 / 435.565
AIST 1 24 May 22:53:41 22:57:52 43° 283° (WNW) 23:02:06
AISAT 24 May 23:00:40 23:03:49 19° 64° (ENE) 23:07:00 437.250
HUMSAT D 24 May 23:00:51 23:04:54 65° 259° (W) 23:08:58 437.325/437.525
FUNcube-1 24 May 23:05:30 23:08:15 17° 268° (W) 23:10:57 145.935
UNISAT 6 24 May 23:13:15 23:17:10 33° 97° (E) 23:21:05 437.425
PRISM 24 May 23:14:42 23:16:51 14° 298° (WNW) 23:19:00 437.425
ISS 24 May 23:15:09 23:18:18 46° 141° (SE) 23:21:27 145.825
TIGRISAT 24 May 23:21:53 23:25:54 39° 98° (E) 23:29:56 435.000
ESTCUBE 1 24 May 23:24:05 23:28:21 43° 71° (ENE) 23:32:39 437.505/2401.250
UKube-1 24 May 23:26:18 23:29:41 23° 65° (ENE) 23:33:05 .
PHONESAT 2.4 24 May 23:29:08 23:30:17 12° 150° (SSE) 23:31:27 2401.200-2431.200
DANDE 24 May 23:36:47 23:44:46 45° 71° (ENE) 23:52:22 436.750
POPSAT HIP 1 24 May 23:39:45 23:41:07 11° 89° (E) 23:42:29 437.405
QB50P1 24 May 23:40:17 23:41:52 12° 90° (E) 23:43:26 145.935-145.965
QB50P2 24 May 23:41:05 23:43:02 13° 90° (E) 23:44:58 145.880/145.840
BEESAT 2 24 May 23:42:57 23:43:39 10° 252° (WSW) 23:44:21 435.950
POLYITAN 1 24 May 23:43:28 23:45:27 13° 90° (E) 23:47:28 437.675
AIST 2 24 May 23:44:34 23:48:41 58° 53° (NE) 23:52:46 435.215
ANTELSAT 24 May 23:54:20 23:58:39 86° 282° (WNW) 00:02:59 437.575/2403.000
50 SAT 24 May 23:55:54 23:59:30 72° 75° (ENE) 00:03:10 437.505
NANOSAT C BR1 24 May 23:59:26 00:02:25 19° 93° (E) 00:05:22 145.865
VELOX 1 24 May 23:59:47 00:04:14 72° 74° (ENE) 00:08:42 145.980
CUBEBUG 1 25 May 00:01:31 00:05:56 75° 74° (ENE) 00:10:23 437.445
RS-15 25 May 00:04:22 00:14:12 27° 11° (N) 00:24:13 29.354- 29.394
DX 1 25 May 00:05:44 00:10:05 71° 74° (ENE) 00:14:29 434.975-435.025
CUSAT 1 25 May 00:13:38 00:21:31 66° 266° (W) 00:28:17 437.405
SO-50 25 May 00:33:42 00:35:26 12° 107° (ESE) 00:37:11 436.795
GONETS M04 25 May 00:35:09 00:42:49 32° 292° (WNW) 00:50:30
AISAT 25 May 00:35:40 00:39:58 45° 261° (W) 00:44:18 437.250
DUCHIFAT 1 25 May 00:38:49 00:42:52 47° 99° (E) 00:46:53 145.980
SPROUT 25 May 00:43:26 00:47:44 82° 73° (ENE) 00:52:03 437.525
Cosmos 2499 25 May 00:46:48 00:53:25 38° 289° (WNW) 01:00:30 435.465 / 435.565
JAS-2 25 May 00:47:01 00:51:47 18° 85° (E) 00:56:17 435.910
UNISAT 6 25 May 00:50:21 00:53:43 23° 293° (WNW) 00:57:06 437.425
ISS 25 May 00:51:52 00:54:50 31° 339° (NNW) 00:57:49 145.825
TIGRISAT 25 May 00:59:14 01:02:21 20° 294° (WNW) 01:05:28 435.000
UKube-1 25 May 01:01:34 01:05:32 35° 262° (W) 01:09:33 .
ESTCUBE 1 25 May 01:02:08 01:05:21 19° 268° (W) 01:08:37 437.505/2401.250
PHONESAT 2.4 25 May 01:03:37 01:06:30 35° 166° (SSE) 01:09:24 2401.200-2431.200
BUGSAT 1 25 May 01:10:33 01:14:30 49° 100° (E) 01:18:24 437.445
POPSAT HIP 1 25 May 01:13:10 01:17:20 64° 285° (WNW) 01:21:28 437.405
QB50P1 25 May 01:13:54 01:18:03 61° 286° (WNW) 01:22:11 145.935-145.965
QB50P2 25 May 01:15:04 01:19:12 56° 287° (WNW) 01:23:18 145.880/145.840
POLYITAN 1 25 May 01:17:30 01:21:37 55° 287° (WNW) 01:25:43 437.675
TISAT 1 25 May 01:19:35 01:23:45 58° 73° (ENE) 01:27:55 437.305
DANDE 25 May 01:19:45 01:27:39 46° 270° (W) 01:35:06 436.750
AIST 2 25 May 01:24:25 01:26:42 14° 250° (WSW) 01:28:58 435.215
NANOSAT C BR1 25 May 01:34:24 01:38:17 38° 290° (WNW) 01:42:10 145.865
VELOX 1 25 May 01:39:41 01:41:11 11° 271° (W) 01:42:40 145.980
CUBEBUG 1 25 May 01:41:42 01:42:44 11° 271° (W) 01:43:46 437.445
DX 1 25 May 01:45:28 01:46:46 11° 271° (W) 01:48:03 434.975-435.025
CUSAT 1 25 May 01:59:02 02:01:54 12° 286° (WNW) 02:04:40 437.405
Gurwin Techsat 1B 25 May 02:05:01 02:06:59 12° 88° (E) 02:08:57 435.225
Oscar 19 25 May 02:05:40 02:10:08 29° 95° (E) 02:14:34 437.125/150
SWISSCUBE 25 May 02:06:58 02:11:24 41° 70° (ENE) 02:15:53 437.505
SO-50 25 May 02:10:17 02:15:12 89° 96° (E) 02:20:08 436.795
ITUPSAT 1 25 May 02:11:24 02:15:50 40° 69° (ENE) 02:20:18 437.325
DUCHIFAT 1 25 May 02:15:35 02:18:12 16° 296° (WNW) 02:20:47 145.980
RS-15 25 May 02:18:32 02:30:28 53° 43° (NE) 02:42:25 29.354- 29.394
ISS 25 May 02:29:37 02:31:59 18° 359° (N) 02:34:22 145.825
JAS-2 25 May 02:30:10 02:37:52 89° 292° (WNW) 02:44:46 435.910
BEESAT 25 May 02:36:44 02:41:28 74° 74° (ENE) 02:46:14 436.000
PHONESAT 2.4 25 May 02:39:58 02:43:02 50° 182° (S) 02:46:04 2401.200-2431.200
BUGSAT 1 25 May 02:47:12 02:49:28 15° 297° (WNW) 02:51:44 437.445
KKS-1 25 May 02:48:30 02:50:36 13° 61° (ENE) 02:52:42 437.445
YUBILEINY 25 May 02:56:42 03:03:51 27° 65° (ENE) 03:10:59 435.215
TISAT 1 25 May 02:57:52 02:59:46 13° 270° (W) 03:01:40 437.305
